Regional Weather Roundup
Issued by NWS

Home | Current Version | Previous Version | Graphics & Text | Print | Product List | Glossary On
Versions: 1 2 3 4 5 6 7 8 9 10 11 12 13 14 15 16 17 18 19 20 21 22 23 24 25 26 27 28 29 30 31 32 33 34 35 36 37 38 39 40 41 42 43 44 45 46 47 48 49 50
000
ASUS44 KMEG 040800
RWRTN
TENNESSEE HOURLY STATE WEATHER ROUNDUP
NATIONAL WEATHER SERVICE MEMPHIS TN
200 AM CST WED MAR 04 2015

TNZ002-004-019-021-049-052-054-088>092-040900-
WEST TENNESSEE

CITY           SKY/WX    TMP DP  RH WIND       PRES   REMARKS
MEMPHIS INTL   FOG       61  59  93 W3        29.87S VSB 1
NWS MEMPHIS      N/A     61 N/A N/A MISG        N/A
JACKSON        CLOUDY    61  59  93 NW13      29.86S
DYERSBURG      CLOUDY    48  37  66 N6        29.90S
UNION CITY     CLOUDY    45  45 100 N8        29.89R
PARIS          CLOUDY    48  48 100 N7        29.88S
LEXINGTON      CLOUDY    64  63  94 S9        29.84F
SAVANNAH       CLOUDY    64  64 100 S12       29.88F
$$

TNZ008-025-027-028-033-062-065-066-040900-
NORTH MIDDLE TENNESSEE

CITY           SKY/WX    TMP DP  RH WIND       PRES   REMARKS
NASHVILLE      PTCLDY    64  61  90 S12       29.85F
CLARKSVILLE    RAIN      50  49  96 N12       29.88R FOG
COOKEVILLE     CLOUDY    63  61  94 SW16      29.88F
CROSSVILLE     LGT RAIN  60  58  92 SW8       29.93S FOG
$$

TNZ061-075-076-078-094-096-097-040900-
SOUTH MIDDLE TENNESSEE

CITY           SKY/WX    TMP DP  RH WIND       PRES   REMARKS
FAYETTEVILLE   CLOUDY    61  61 100 S9          N/A
TULLAHOMA      CLOUDY    61  61 100 SW10      29.92F
WINCHESTER     CLOUDY    63  61  94 S8        29.93F
COLUMBIA       CLOUDY   N/A N/A N/A SW12      29.87S
SHELBYVILLE    CLOUDY    64  64 100 S14       29.90F
$$

TNZ017-018-042-046-047-040900-
NORTHEAST TENNESSEE

CITY           SKY/WX    TMP DP  RH WIND       PRES   REMARKS
TRI CITIES     FOG       46  46 100 CALM      29.93F VSB 1
ELIZABETHTON   FOG       45  45 100 SW3       29.92F VSB 1/4
$$

TNZ012-013-036-069-073-074-040900-
CENTRAL EAST TENNESSEE

CITY           SKY/WX    TMP DP  RH WIND       PRES   REMARKS
KNOXVILLE      LGT RAIN  57  56  96 W13       29.92F
OAK RIDGE      LGT RAIN  54  53  97 W6        29.94F FOG
GATLINBURG     CLOUDY    48  46  93 CALM      29.91F VSB 1/4
$$

TNZ083-085-099-040900-
SOUTHEAST TENNESSEE

CITY           SKY/WX    TMP DP  RH WIND       PRES   REMARKS
CHATTANOOGA    CLOUDY    57  55  93 S9        29.97F FOG
$$

SKY/WX REPORTED AS FAIR MEANS FEW OR NO CLOUDS BELOW
12 THOUSAND FEET.



USA.gov is the U.S. government's official web portal to all federal, state and local government web resources and services.